To NAV CANADA Home Page Login to a new session Search on AWWS site Disclaimer Vers la page française équivalente Tips FAQ What's new on the site To the Forecasts and Observations / NOTAM section To "File a Flight Plan" website Publications and other links Update of the User's profile FIC Telephone Numbers My Weather Data Folder Route Weather Data Regional Weather Data Local Weather Data To the Forecasts and Observations / NOTAM section
Request Generated 04/24/2019 at 16:40:45 UTC . Weather information available at that time is displayed.

METAR/TAF

KIMMIRUT/NU    

METAR CYLC 241600Z 22006KT 15SM -SN OVC022 M12/M16 A3011 RMK SC8 SLP205=
METAR CYLC 241500Z 24004KT 210V280 15SM -SN BKN023 OVC029 M12/M17 A3012 RMK SC5SC3 SLP206=
METAR CYLC 241400Z 24005KT 15SM -SN OVC022 M12/M17 A3014 RMK SC8 SLP213=

CYLC - No TAF is issued for this station

Your time UTC time
Weather data provided by Environment Canada and NAV CANADA